Simultaneous Nadir Overpasses (SNOs) Predictions

Prediction of SNOs between GOES-16 and AQUA Satellite Orbit:

Table of predicted SNOs for the next 14.0 days since TLE Epoch: 10/3/2025
Index Date Time (GOES-16) GOES-16 Lat,Lon AQUA Lat,Lon Distance(km) Time Diff (sec)
1 10/03/2025 22:06:50 0.04,-104.68 -0.67,-108.08 386.66 80
2 10/05/2025 21:48:42 0.05,-104.68 0.42,-102.99 193.35 80
3 10/06/2025 10:07:42 -0.04,-104.71 0.59,-107.58 326.87 80
4 10/08/2025 09:44:14 -0.04,-104.71 -0.54,-102.48 253.41 80
5 10/08/2025 22:03:22 0.03,-104.68 -0.51,-107.10 275.69 80
6 10/10/2025 21:45:11 0.03,-104.68 0.60,-101.99 305.18 80
7 10/11/2025 10:04:12 -0.02,-104.70 0.36,-106.59 214.53 80
8 10/13/2025 09:40:39 -0.03,-104.69 -0.73,-101.47 366.38 80
9 10/13/2025 21:59:48 0.02,-104.67 -0.27,-106.10 162.70 80
10 10/15/2025 21:41:33 0.03,-104.66 0.80,-100.97 419.79 80
11 10/16/2025 10:00:33 -0.02,-104.69 0.18,-105.56 98.98 80
